Tracking 35237 objects as of 4-Sep-2026
HD Live streaming from Space Station
objects crossing your sky now

PAGEOS 1 DEB


10-day predictions


NORAD ID: 2511
Int'l Code: 1966-056D
Launch date: June 24, 1966
Source: United States (US)
Launch site: AIR FORCE WESTERN TEST RANGE (AFWTR)

Note: This is SATELLITE DEBRIS
Your satellite tracking list
Your tracking list is empty




NASA's NSSDC Master Catalog

Two Line Element Set (TLE):
1  2511U 66056D   26247.34582904  .00000032  00000-0  28743-1 0  9998
2  2511  87.0076 217.8796 0016679 137.7180 222.4914  7.93368972358863
Source of the keplerian elements: AFSPC